Flag for USA

Past Weather in Tuba City, Arizona, USA — Yesterday and Last 2 Weeks

Now
71 °F

Clear.


Feels Like: 75 °F
Forecast: 89 / 53 °F
Wind: 6 mph from Southwest

Location: Grand Canyon National Park Airport
Current Time: Sep 19, 2020 at 8:26:55 pm
Latest Report: Sep 19, 2020 at 7:54 pm
Visibility: 10 mi
Pressure29.93 "Hg(25.12 "Hg at 1510m altitude)
Humidity: 23%
Dew Point: 31 °F
Location of Tuba CityLocation

Past Weather in Tuba City — Graph

°F

Tuba City Temperature Yesterday

Maximum temperature yesterday: 83 °F (at 2:54 pm)
Minimum temperature yesterday: 39 °F (at 5:54 am)
Average temperature yesterday: 61 °F

High & Low Weather Summary for the Past Weeks

 TemperatureHumidityPressure
High94 °F (Sep 5, 3:54 pm)79% (Sep 10, 5:54 am)30.24 "Hg (Sep 10, 5:54 am)
Low28 °F (Sep 10, 6:54 am)7% (Sep 4, 6:54 pm)29.47 "Hg (Sep 8, 7:54 am)
Average59 °F28%30.05 "Hg
* Reported Sep 4 6:54 pm — Sep 19 6:54 pm, Tuba City. Weather by CustomWeather, © 2020

Note: Actual official high and low records may vary slightly from our data, if they occured in-between our weather recording intervals... More about our weather records

Tuba City Weather History for the Previous 24 Hours

Scroll right to see more
 ConditionsComfort  
Time TempWeatherWind HumidityBarometerVisibility
6:54 pm
Sat, Sep 19
76 °FSunny.13 mph20%29.86 "Hg10 mi
5:54 pm77 °FSunny.15 mph19%29.91 "Hg10 mi
4:54 pm81 °FPartly sunny.18 mph18%29.91 "Hg10 mi
3:54 pm80 °FScattered clouds.18 mph20%29.93 "Hg10 mi
2:54 pm79 °FPartly sunny.12 mph20%29.94 "Hg10 mi
1:54 pm79 °FSunny.18 mph18%29.96 "Hg10 mi
12:54 pm80 °FSunny.18 mph17%29.97 "Hg9 mi
11:54 am77 °FSunny.13 mph22%30.00 "Hg10 mi
10:54 am75 °FSunny.16 mph26%30.01 "Hg10 mi
9:54 am70 °FSunny.15 mph30%30.03 "Hg10 mi
8:54 am64 °FSunny.7 mph34%30.02 "Hg10 mi
7:54 am50 °FSunny.5 mph44%30.06 "Hg10 mi
6:54 am60 °FClear.8 mph35%29.96 "Hg10 mi
5:54 am45 °FOvercast.No wind44%30.00 "Hg10 mi
4:54 am43 °FPassing clouds.No wind43%29.99 "Hg10 mi
3:54 am44 °FPassing clouds.No wind41%29.99 "Hg10 mi
2:54 am46 °FPassing clouds.No wind38%29.99 "Hg10 mi
1:54 am46 °FPassing clouds.No wind38%30.00 "Hg10 mi
12:54 am47 °FClear.No wind37%30.01 "Hg10 mi
11:54 pm
Fri, Sep 18
50 °FPassing clouds.No wind33%30.01 "Hg10 mi
10:54 pm52 °FClear.No wind32%30.00 "Hg10 mi
9:54 pm54 °FClear.3 mph29%30.01 "Hg10 mi
8:54 pm61 °FClear.No wind22%30.03 "Hg10 mi
Weather by CustomWeather, © 2020

See weather overview